星链-30616 (STARLINK-30616 )

导读

STARLINK-30616是美国星链互联网项目卫星,于北京时间2023年10月21日发射入轨,归属于美国太空探索技术公司(SpaceX)。该卫星是星链星座组网建设的组成部分,承担低轨卫星互联网的全球覆盖、信号传输任务,助力星链完成全球网络服务布局。

Basic Information
目录编号:
58105
目录名称:
STARLINK-30616
国际标识:
2023-161J
轨道中心:
EARTH
卫星名称:
星链-30616
卫星全名:
星链-30616 (STARLINK-30616 )
卫星状态:
在轨 (已飞行1049 天)
发射日期:
2023-10-21 UTC
国别 :
美国 (US)
星等 :
--
Orbit Information
数据来源 国际轨道数据 AOE轨道数据
星历时间 2026-09-04T04:10:24+0800
12小时前
查看轨道信息
2026-08-30T02:00:00+0800
5天前
查看轨道信息
半长轴 6840.843km 6840.793km
偏心率 0.0001215 0.0001541
轨道倾角 53.160° 53.159°
近地点辐角 78.190° 101.559°
升交点赤经 41.803° 65.602°
平近点角 281.924° 203.679°
近地点 461.874km 461.601km
远地点 463.538km 463.711km
周期 93.848分钟 93.847分钟
每日圈数 15.343991 15.34416
Detailed Information
固有亮度:
5
最大亮度:
0.3
卫星平台:
Starlink v2.0 mini
覆盖范围:
全球
运营商:
太空探索技术公司
运营商所在国:
美国
制造商(研发单位):
太空探索技术公司
制造商所在国:
美国
使用方式:
暂无
Satellite Introduction
星链(Starlink)计划是由太空探索技术公司(SpaceX)提出的一个巨型低轨卫星互联网星座项目,计划在2019年至2024年间在太空搭建由约1.2万颗卫星组成的“星链”网络,其中1584颗将部署在地球上空550千米处的近地轨道,并从2020年开始工作。该卫星仍在工作。
2D Orbit Map
3D Orbit Map
Orbit Altitude Analysis Chart
Orbit Inclination Analysis Chart
Orbit Comprehensive Analysis Chart
View Comprehensive Chart
Conjunction Data List
Event ID Objects TCA Miss Dist (km) Collision Risk Probability Collision Risk Index (CRI) Action
CDM_260904-200705-810506-295321
2026-09-04T
20:07:26+0000
0.194 km
中距离
6.621499E-4 高风险 0.91
CDM_260901-101105-810506-489123
OBJECT R (64891)
2026-09-01T
10:11:00+0000
1.479 km
极远距离
6.959916E-6 低风险 0.52
CDM_260906-145603-052005-810521
2026-09-06T
14:56:44+0000
1.432 km
极远距离
6.213868E-6 低风险 0.51
CDM_260901-105705-810506-489121
OBJECT R (64891)
2026-09-01T
10:57:55+0000
2.092 km
极远距离
2.537903E-6 低风险 0.43
CDM_260904-155905-249305-810521
2026-09-04T
15:59:17+0000
2.439 km
极远距离
1.261872E-6 低风险 0.37
CDM_260904-214105-810506-295321
2026-09-04T
21:41:13+0000
2.491 km
极远距离
1.200005E-6 低风险 0.37
CDM_260904-195805-810506-285721
2026-09-04T
19:58:58+0000
2.366 km
极远距离
6.9417E-7 极低风险 0.32